Location: Leipzig
(51.3203°N, 12.3761°E)
Time: 21:51:09
(UTC+01:00)

ISS - Pass Details

Date: 29 November 2021
Orbit: 413 x 422 km, 51.6° (Epoch: 27 January)

Event Time Altitude Azimuth Distance (km) Brightness Sun altitude
Rises 16:52:06 0° 257° (WSW) 2,386 2.1 -6.9°
Reaches altitude 10° 16:54:13 10° 256° (WSW) 1,519 0.7 -7.2°
Maximum altitude 16:57:38 84° 170° (S) 433 -3.7 -7.7°
Enters shadow 17:01:00 10° 81° (E) 1,503 -1.6 -8.2°
